[[{"header":{"parameterUnit":"m.s-1","parameterCategory":1,"la1":30.2992,"la2":30.254,"lo1":-89.0895,"lo2":-89.0443,"dy":0.0025,"dx":0.0025,"nx":19,"ny":19,"refTime":"2026-04-08T09:00:00:Z","depth":0,"parameterNumber":2,"parameterNumberName":"U-component_of_WINDS"},"data":[0,0,0,-5.5559,-5.5563,-5.5733,-5.5733,-5.598,-5.5982,0,0,0,0,0,0,0,0,0,0,0,-5.5525,-5.5527,-5.5559,-5.5563,-5.5733,-5.5733,-5.598,-5.5982,0,0,0,0,0,0,0,0,0,0,0,-5.5524,-5.5527,-5.553,-5.5564,-5.5733,-5.5733,-5.5979,-5.5841,0,0,0,0,0,0,0,0,0,0,-5.5671,-5.5656,-5.5526,-5.553,-5.5565,-5.5733,-5.5734,-5.5834,-5.5849,-5.5915,0,-5.5977,0,-5.5984,-5.6001,-5.6002,0,0,0,-5.5551,-5.5643,-5.5673,-5.553,-5.5567,-5.5732,-5.5653,-5.5842,-5.586,-5.5937,-5.598,-5.5989,-5.5988,-5.6002,-5.6004,-5.6423,-5.6425,0,0,-5.5542,-5.5565,-5.5661,-5.5686,-5.566,-5.5648,-5.5658,-5.5852,-5.5902,-5.5981,-5.5994,-5.5992,-5.6004,-5.6006,-5.642,-5.6423,0,0,0,-5.5523,-5.5559,-5.5584,-5.5676,-5.5705,-5.5653,-5.5665,-5.5894,-5.59,-5.5997,-5.5995,-5.6006,-5.6009,-5.6418,-5.6421,-5.6569,0,0,0,-5.5517,-5.5548,-5.5581,-5.5597,-5.5702,-5.5801,-5.5703,-5.5887,-5.5908,-5.5994,-5.6006,-5.6012,-5.6415,-5.642,-5.6559,-5.6636,0,0,0,-5.5509,-5.5547,-5.5577,-5.5597,-5.5671,-5.5797,-5.5814,-5.5891,-5.5908,-5.6002,-5.6013,-5.6413,-5.6419,-5.655,-5.6621,-5.6754,0,0,0,-5.5506,-5.5705,-5.558,-5.5801,-5.567,-5.5887,-5.5813,-5.5973,-5.6072,-5.6007,-5.6415,-5.6421,-5.6547,-5.6612,-5.6744,-5.6871,-5.6925,0,0,-5.577,-5.5738,-5.5866,-5.5759,-5.6004,-5.5859,-5.6126,-5.6195,-5.6183,-5.6344,-5.6354,-5.6562,-5.662,-5.6752,-5.722,-5.7263,0,0,0,-5.5958,-5.6051,-5.6111,-5.6205,-5.6262,-5.6318,-5.6342,-5.6368,-5.6504,-5.627,-5.6645,-5.6678,-5.6755,-5.6815,-5.6852,-5.6917,-5.6449,-5.6448,-5.6448,-5.6365,-5.6339,-5.655,-5.6545,-5.6638,-5.6662,-5.6736,-5.6775,-5.6721,-5.681,-5.6859,-5.7146,-5.7216,-5.7244,-5.7312,-5.6922,-5.6922,-5.6923,-5.6923,-5.675,-5.6878,-5.6803,-5.6981,-5.6953,-5.7103,-5.7135,-5.7092,-5.7229,-5.7107,-5.7173,-5.7044,-5.7292,-5.7351,-5.6934,-5.6932,-5.6931,-5.693,-5.6929,-5.7015,-5.7072,-5.7099,-5.7234,-5.7342,-5.733,-5.7465,-5.7434,-5.7406,-5.7471,-5.752,-5.7518,-5.7513,-5.7496,-5.7497,-5.7498,-5.7499,-5.75,-5.7501,-5.728,-5.7306,-5.7423,-5.7501,-5.7558,-5.763,-5.7657,-5.7713,-5.7768,-5.7735,-5.7735,-5.7675,-5.732,-5.7233,-5.7516,-5.7513,-5.7511,-5.751,-5.7509,-5.7682,-5.7587,-5.7767,-5.7825,-5.7915,-5.8025,-5.7984,-5.8101,-5.8143,-5.8211,-5.8136,-5.7879,-5.7844,-5.7814,-5.7742,-5.814,-5.814,-5.814,-5.814,-5.7907,-5.7886,-5.8065,-5.816,-5.8249,-5.823,-5.8438,-5.8462,-5.8472,-5.8497,-5.8434,-5.8335,-5.8306,-5.8288,-5.8249,-5.8181,-5.8681,-5.8682,-5.8682,-5.8154,-5.8141,-5.8323,-5.833,-5.8398,-5.8458,-5.8653,-5.8766,-5.8757,-5.8704,-5.8516,-5.8493,-5.8332,-5.8281,-5.8224,-5.8163,-5.8038,0,0]},{"header":{"parameterUnit":"m.s-1","parameterCategory":1,"la1":30.2992,"la2":30.254,"lo1":-89.0895,"lo2":-89.0443,"dy":0.0025,"dx":0.0025,"nx":19,"ny":19,"refTime":"2026-04-08T09:00:00:Z","depth":0,"parameterNumber":3,"parameterNumberName":"V-component_of_WINDS"},"data":[0,0,0,-1.2388,-1.2389,-1.2441,-1.2441,-1.2511,-1.2512,0,0,0,0,0,0,0,0,0,0,0,-1.2375,-1.2376,-1.2388,-1.2389,-1.2441,-1.2441,-1.2511,-1.2512,0,0,0,0,0,0,0,0,0,0,0,-1.2375,-1.2376,-1.2376,-1.239,-1.2441,-1.2441,-1.2511,-1.2471,0,0,0,0,0,0,0,0,0,0,-1.242,-1.241,-1.2376,-1.2376,-1.239,-1.2441,-1.2441,-1.2469,-1.2473,-1.249,0,-1.2505,0,-1.251,-1.2517,-1.2517,0,0,0,-1.2388,-1.2407,-1.2418,-1.2377,-1.239,-1.2441,-1.2417,-1.2471,-1.2476,-1.2496,-1.2506,-1.2508,-1.2511,-1.2517,-1.2518,-1.2617,-1.2617,0,0,-1.2385,-1.2386,-1.2415,-1.2422,-1.2414,-1.2416,-1.2419,-1.2474,-1.2486,-1.2506,-1.251,-1.2512,-1.2518,-1.2519,-1.2616,-1.2617,0,0,0,-1.2378,-1.2384,-1.2394,-1.2419,-1.2428,-1.2417,-1.2421,-1.2483,-1.2486,-1.2511,-1.2513,-1.2518,-1.2519,-1.2616,-1.2617,-1.2644,0,0,0,-1.2376,-1.238,-1.2393,-1.2395,-1.2427,-1.2456,-1.2429,-1.2482,-1.2489,-1.2512,-1.2518,-1.252,-1.2615,-1.2616,-1.2642,-1.2658,0,0,0,-1.2371,-1.2379,-1.2388,-1.2394,-1.2417,-1.2455,-1.2462,-1.2484,-1.249,-1.2517,-1.252,-1.2615,-1.2616,-1.2641,-1.2655,-1.2684,0,0,0,-1.2366,-1.2413,-1.2388,-1.244,-1.2416,-1.2472,-1.2461,-1.2503,-1.2529,-1.2519,-1.2615,-1.2616,-1.264,-1.2653,-1.2682,-1.2709,-1.272,0,0,-1.2426,-1.242,-1.245,-1.243,-1.249,-1.2464,-1.2528,-1.2552,-1.2553,-1.2596,-1.2598,-1.2643,-1.2655,-1.2684,-1.2782,-1.2791,0,0,0,-1.2469,-1.2491,-1.2507,-1.2532,-1.2551,-1.2568,-1.2581,-1.2589,-1.2625,-1.2575,-1.2661,-1.2668,-1.2685,-1.2698,-1.2706,-1.272,-1.2622,-1.2622,-1.2622,-1.2556,-1.2554,-1.2605,-1.2609,-1.2633,-1.2646,-1.2665,-1.2679,-1.2671,-1.2691,-1.2704,-1.2764,-1.2779,-1.2785,-1.28,-1.2718,-1.2718,-1.2718,-1.2718,-1.2643,-1.2673,-1.266,-1.2704,-1.2702,-1.2739,-1.2752,-1.2745,-1.2779,-1.2755,-1.2769,-1.2743,-1.2795,-1.2808,-1.272,-1.272,-1.2719,-1.2719,-1.2719,-1.27,-1.2714,-1.2722,-1.2757,-1.2784,-1.2787,-1.2819,-1.2816,-1.2814,-1.2829,-1.2841,-1.2841,-1.284,-1.2835,-1.2835,-1.2835,-1.2835,-1.2835,-1.2836,-1.2756,-1.2764,-1.2792,-1.2814,-1.2829,-1.2848,-1.2859,-1.2874,-1.2889,-1.2884,-1.2884,-1.2874,-1.28,-1.2781,-1.2839,-1.2838,-1.2838,-1.2838,-1.2837,-1.2845,-1.2824,-1.2867,-1.2882,-1.2906,-1.2933,-1.2927,-1.2957,-1.2968,-1.2984,-1.2971,-1.2916,-1.291,-1.2904,-1.2889,-1.2971,-1.2971,-1.2971,-1.2971,-1.2893,-1.2889,-1.2932,-1.2956,-1.2978,-1.2977,-1.3025,-1.3034,-1.304,-1.3046,-1.3034,-1.3013,-1.3007,-1.3005,-1.2996,-1.2982,-1.3086,-1.3086,-1.3087,-1.2948,-1.2946,-1.2988,-1.2992,-1.3011,-1.3027,-1.3071,-1.3099,-1.3101,-1.3091,-1.3052,-1.3047,-1.3013,-1.3002,-1.2993,-1.298,-1.2954,0,0]}]]